CW0570 Weather Reports


Display with metric or nautical units.
time (UTC)temp
F
wind
direction
speed
MPH
gust
MPH
rain 1hr
in
rain 24hr
in
rain mn
in
humidity
%
barometer
mb
20260831131600 46 32 0.0 0.0 0.00 0.01 0.00 96 1012.8
20260831130051 46 32 0.0 0.0 0.00 0.01 0.00 96 1012.8
20260831124550 47 32 0.0 0.0 0.00 0.01 0.00 96 1012.9
20260831123049 47 32 0.0 0.0 0.00 0.01 0.00 96 1012.9
20260831121548 47 32 0.0 0.0 0.00 0.01 0.00 96 1013.1
20260831120046 47 32 0.0 0.0 0.00 0.01 0.00 96 1013.1
20260831114545 47 32 0.0 0.0 0.00 0.01 0.00 96 1013.1
20260831113047 48 32 0.0 0.0 0.00 0.01 0.00 96 1013.0
20260831111550 48 32 0.0 0.0 0.00 0.01 0.00 96 1013.1
20260831110041 48 32 0.0 0.0 0.00 0.01 0.00 95 1013.0
20260831104540 48 32 0.0 0.0 0.00 0.01 0.00 95 1013.1
20260831103039 48 32 0.0 0.0 0.00 0.01 0.00 95 1013.1
20260831101537 49 32 0.0 0.0 0.00 0.01 0.00 95 1013.1
20260831100047 49 32 0.0 0.0 0.00 0.01 0.00 95 1013.0
20260831094540 49 32 0.0 0.0 0.00 0.01 0.00 95 1013.2
20260831093047 49 32 0.0 0.0 0.00 0.01 0.00 95 1013.3
20260831091530 50 32 0.0 0.0 0.00 0.01 0.00 95 1013.3
20260831090028 50 32 0.0 0.0 0.00 0.01 0.00 95 1013.3
20260831084526 50 32 0.0 0.0 0.00 0.01 0.00 94 1013.4
20260831083025 51 32 0.0 0.0 0.00 0.01 0.00 94 1013.5
20260831081523 51 32 0.0 0.0 0.00 0.01 0.00 94 1013.6
20260831080032 51 32 0.0 0.0 0.00 0.01 0.00 93 1013.7
20260831074518 52 32 0.0 0.0 0.00 0.01 0.00 93 1013.7
20260831073016 52 32 0.0 0.0 0.00 0.01 0.00 93 1013.8
20260831071532 52 32 0.0 0.0 0.00 0.01 0.00 92 1013.9
20260831070012 53 32 0.0 0.0 0.00 0.01 0.00 92 1014.0
20260831064511 53 32 0.0 0.0 0.00 0.01 0.01 92 1014.1
20260831063014 54 32 0.0 0.0 0.00 0.01 0.01 91 1014.0
20260831061511 54 32 0.0 0.0 0.00 0.01 0.01 91 1014.1
20260831060012 55 32 0.0 0.0 0.00 0.01 0.01 90 1014.2
20260831054509 55 32 0.0 0.0 0.00 0.01 0.01 88 1014.3
20260831053009 56 32 0.0 0.0 0.00 0.01 0.01 88 1014.5
20260831051513 56 32 0.0 0.0 0.00 0.01 0.01 87 1014.5
20260831050008 57 32 0.0 0.0 0.00 0.01 0.01 86 1014.6
20260831044508 58 32 0.0 0.0 0.00 0.01 0.01 85 1014.6
20260831043007 59 32 0.0 0.0 0.00 0.01 0.01 84 1014.5
20260831041510 60 32 0.0 0.0 0.00 0.01 0.01 82 1014.4
20260831040006 61 32 0.0 0.0 0.00 0.01 0.01 80 1014.2
20260831034505 62 32 0.0 2.0 0.00 0.01 0.01 78 1014.1
20260831033013 63 32 0.0 2.0 0.00 0.01 0.01 77 1014.0
20260831031505 63 158 0.0 2.0 0.00 0.01 0.01 75 1013.9
20260831030004 65 171 0.0 0.0 0.00 0.01 0.01 72 1013.7
20260831024503 66 171 0.0 2.0 0.00 0.01 0.01 70 1013.7
20260831023008 68 162 0.0 2.0 0.00 0.01 0.01 64 1013.7
20260831021503 69 131 0.0 3.0 0.00 0.01 0.01 63 1013.6
20260831020002 70 109 0.0 6.0 0.00 0.01 0.01 59 1013.6
20260831014502 73 272 1.0 4.0 0.00 0.01 0.01 55 1013.6
20260831013002 74 342 1.0 6.0 0.00 0.01 0.01 55 1013.6
20260831011601 74 141 0.0 5.0 0.00 0.01 0.01 55 1013.6
20260831010117 74 250 2.0 8.0 0.00 0.01 0.01 53 1013.6
20260831004607 74 316 1.0 9.0 0.00 0.01 0.01 55 1013.7
20260831003158 75 265 2.0 7.0 0.00 0.01 0.01 55 1013.7
20260831001557 75 217 1.0 10.0 0.00 0.01 0.01 56 1013.9
20260831000105 75 277 3.0 10.0 0.01 0.01 0.01 55 1013.7
20260830234601 76 209 2.0 9.0 0.01 0.01 0.01 57 1013.7
20260830233054 76 236 3.0 11.0 0.01 0.01 0.01 57 1013.6
20260830231555 77 241 3.0 10.0 0.01 0.01 0.01 57 1013.5
20260830230053 77 256 2.0 9.0 0.00 0.00 0.00 56 1013.7
20260830224551 78 140 3.0 10.0 0.00 0.00 0.00 56 1013.8
20260830223049 78 334 1.0 15.0 0.00 0.00 0.00 58 1013.9
20260830221547 78 247 2.0 8.0 0.00 0.00 0.00 58 1014.0
20260830220045 78 80 3.0 11.0 0.00 0.00 0.00 56 1014.0
20260830214544 79 107 1.0 7.0 0.00 0.00 0.00 57 1014.2
20260830213055 79 236 2.0 7.0 0.00 0.00 0.00 57 1014.3
20260830211541 78 144 2.0 10.0 0.00 0.00 0.00 57 1014.4
20260830210041 78 200 2.0 10.0 0.00 0.00 0.00 58 1014.4
20260830204542 78 170 2.0 9.0 0.00 0.00 0.00 57 1014.3
20260830203040 79 220 2.0 9.0 0.00 0.00 0.00 56 1014.4
20260830201539 79 206 2.0 7.0 0.00 0.00 0.00 56 1014.3
20260830200038 78 259 3.0 12.0 0.00 0.00 0.00 56 1014.3
20260830194538 79 240 1.0 8.0 0.00 0.00 0.00 55 1014.4
20260830193038 80 163 2.0 6.0 0.00 0.00 0.00 53 1014.4
20260830191536 79 121 0.0 2.0 0.00 0.00 0.00 50 1014.4
20260830190030 77 131 1.0 3.0 0.00 0.00 0.00 52 1014.5
20260830184536 75 360 0.0 4.0 0.00 0.00 0.00 56 1014.8
20260830183022 72 13 1.0 5.0 0.00 0.00 0.00 60 1014.8
20260830181518 69 28 0.0 2.0 0.00 0.00 0.00 69 1015.1
20260830180016 67 28 0.0 2.0 0.00 0.00 0.00 71 1015.2
20260830174510 64 28 0.0 2.0 0.00 0.00 0.00 77 1015.4
20260830173004 60 28 0.0 2.0 0.00 0.00 0.00 86 1015.6
20260830171601 55 28 0.0 0.0 0.00 0.00 0.00 93 1015.8
20260830170055 53 28 0.0 0.0 0.00 0.00 0.00 97 1015.9
20260830164551 51 28 0.0 0.0 0.00 0.00 0.00 98 1016.1
20260830163049 49 28 0.0 0.0 0.00 0.00 0.00 98 1016.4
20260830161600 48 28 0.0 0.0 0.00 0.00 0.00 98 1016.7
20260830160045 47 28 0.0 0.0 0.00 0.00 0.00 97 1016.8
20260830154543 45 28 0.0 0.0 0.00 0.00 0.00 97 1016.9
20260830153043 44 28 0.0 0.0 0.00 0.00 0.00 97 1017.0
20260830151542 44 11 0.0 0.0 0.00 0.00 0.00 97 1017.2
20260830150109 44 11 0.0 0.0 0.00 0.00 0.00 96 1017.2
20260830144541 44 11 0.0 0.0 0.00 0.00 0.00 96 1017.3
20260830143043 43 11 0.0 0.0 0.00 0.00 0.00 96 1017.2
20260830141540 44 11 0.0 0.0 0.00 0.00 0.00 96 1017.3
20260830140039 44 11 0.0 0.0 0.00 0.00 0.00 96 1017.2
20260830134543 44 11 0.0 0.0 0.00 0.00 0.00 96 1017.1
20260830133045 44 11 0.0 0.0 0.00 0.00 0.00 96 1017.1